TIME,DELAY(SENSOR),PRES,T(CTD),SAL,OXYGEN,RAWTEMP,T(OPTODE),TCPHASE,FLUOR,BETA(BETA700),BETA(BETA412),BETA(BETA440),CDOM,C(CSC),ED(ED411.90),ED(ED443.80),ED(ED489.40),ED(ED554.70),LU(LU412.20),LU(LU443.80),LU(LU489.40),LU(LU555.00),COMP,TILTX,TILTX(TILTY),CHECK
1358006656,5805,497.2399902343750000,17.3393993377685550,36.4249000549316400,222.0267028808593800,177.0043029785156200,17.3416900634765620,31.6770000457763670,51,100,96,80,70,12387,2146958500,2147514148,2147268836,2147460690,2147079323,2146956132,2147659035,2147129929,3063,-1,8,57670
1358006773,5805,486.6300048828125000,17.4137001037597660,36.4399986267089840,223.9347991943359400,174.6096954345703000,17.4139308929443360,31.5459098815917970,51,99,96,80,68,12391,2146957915,2147515675,2147269046,2147461988,2147083611,2146953709,2147655680,2147126573,2046,-1,9,7213
1358006900,5803,475.1799926757812500,17.5305995941162100,36.4622001647949200,225.5543060302734400,170.9067993164062500,17.5256500244140620,31.4127998352050780,50,101,96,79,67,12391,2146953746,2147514240,2147267894,2147457974,2147084041,2146958665,2147658706,2147126061,1561,-1,8,22930
1358007017,5803,464.4800109863281000,17.5941009521484380,36.4758987426757800,227.0440979003906200,168.6495971679687500,17.5937595367431640,31.3067493438720700,52,102,96,80,68,12388,2146958290,2147514194,2147269074,2147461686,2147082176,2146960612,2147657033,2147130532,1276,-2,8,26527
1358007144,5806,452.6900024414062500,17.6856002807617200,36.4916000366210940,227.5426025390625000,165.6486053466797000,17.6843204498291000,31.2408409118652340,51,100,96,79,66,12388,2146957952,2147516059,2147268973,2147461165,2147078720,2146956937,2147652379,2147127168,1063,-1,9,21692
1358007259,5806,442.0299987792969000,17.7749004364013670,36.5083999633789060,229.0518951416015600,162.7234954833984400,17.7726192474365230,31.1258697509765620,51,101,97,81,68,12390,2146956662,2147517531,2147271259,2147457901,2147082980,2146958784,2147654985,2147125924,95,-1,8,18096
1358007376,5805,431.2200012207031000,17.7950992584228500,36.5113983154296900,229.9037017822265600,162.0151062011718800,17.7940006256103500,31.0739707946777340,51,100,97,81,68,12390,2146954267,2147516854,2147269540,2147457892,2147078308,2146959826,2147655213,2147130240,2903,-1,8,30217
1358007491,5805,420.6700134277344000,17.8521995544433600,36.5241012573242200,230.9235992431640600,160.1354980468750000,17.8507499694824220,30.9982891082763670,51,99,95,81,67,12387,2146958043,2147510948,2147266313,2147458560,2147075949,2146960182,2147652635,2147129792,2137,-2,9,35077
1358007618,5806,409.1600036621094000,17.9108009338378900,36.5358009338378900,233.1136932373047000,158.1918945312500000,17.9094295501709000,30.8647308349609380,51,101,96,81,67,12390,2146954596,2147514688,2147269741,2147456804,2147083894,2146958098,2147648941,2147127259,1123,-2,9,15503
1358007735,5808,398.7200012207031000,17.9382991790771500,36.5368995666503900,231.7933959960937500,157.4029998779297000,17.9332504272460940,30.9185504913330080,51,101,96,81,67,12387,2146955401,2147519954,2147271524,2147455844,2147077897,2146959186,2147653924,2147126070,690,-1,9,63968
1358007862,5806,387.5499877929687500,17.9773006439209000,36.5427017211914060,231.4880981445312500,156.1091003417968800,17.9723205566406250,30.9162406921386720,51,99,96,80,68,12388,2146952932,2147515849,2147269211,2147455433,2147078628,2146960118,2147655387,2147129755,383,-2,8,60920
1358007991,5805,376.6300048828125000,18.0186004638671880,36.5457000732421900,230.6174011230468800,154.6083984375000000,18.0176391601562500,30.9389400482177730,52,101,96,79,67,12387,2146955492,2147513243,2147268443,2147456064,2147085714,2146960914,2147654518,2147131602,2968,-1,9,38136
1358008130,5803,365.3399963378906000,18.0699005126953120,36.5531997680664060,229.7545928955078000,152.9573974609375000,18.0674991607666000,30.9592609405517580,50,100,96,80,66,12383,2146957558,2147517476,2147268736,2147453952,2147078153,2146960146,2147650313,2147127268,2248,-1,9,14609
1358008269,5805,354.5400085449219000,18.1324996948242200,36.5601997375488300,229.5428009033203000,150.8762969970703000,18.1303691864013670,30.9417705535888670,50,101,96,81,67,12382,2146956224,2147516169,2147266669,2147453723,2147083218,2146957696,2147648630,2147126893,1385,-2,9,8962
1358008405,5803,342.6400146484375000,18.1835002899169920,36.5658988952636700,229.3170013427734400,149.2917022705078000,18.1782398223876950,30.9319190979003900,52,100,97,81,68,12383,2146958354,2147515446,2147270354,2147454829,2147083008,2146961938,2147650084,2147130203,3411,-1,9,36875
1358008508,5808,332.4599914550781000,18.2485008239746100,36.5740013122558600,228.6663970947265600,146.6873931884765600,18.2569198608398440,30.9292697906494140,50,99,97,80,67,12382,2146957138,2147514587,2147267337,2147456228,2147083227,2146963766,2147649197,2147125449,2651,-1,8,49347
1358008623,5803,321.1700134277344000,18.3504009246826170,36.5852012634277340,227.9468994140625000,143.3670043945312500,18.3572692871093750,30.9205894470214840,51,101,96,81,67,12383,2146957257,2147516004,2147267154,2147454528,2147084416,2146957824,2147649298,2147128237,1278,-1,9,62876
1358008740,5805,309.7300109863281000,18.4486007690429700,36.5926017761230500,226.5596008300781200,140.4902954101562500,18.4442195892334000,30.9513702392578120,51,100,97,80,67,12385,2146952036,2147514861,2147267401,2147453805,2147081572,2146958006,2147651538,2147126838,565,-1,9,15607
1358008855,5806,298.4500122070312500,18.5221996307373050,36.5956001281738300,225.1900024414062500,138.1125946044922000,18.5161094665527340,30.9884891510009770,52,100,98,81,68,12382,2146954724,2147517248,2147266368,2147456182,2147080137,2146963254,2147649097,2147127259,3092,-2,8,11302
1358008970,5806,287.0000000000000000,18.5631999969482420,36.5990982055664060,225.0605010986328000,136.5852050781250000,18.5622901916503900,30.9745006561279300,52,100,97,80,68,12382,2146954962,2147513627,2147267931,2147452626,2147087131,2146958052,2147653321,2147129517,2884,-1,9,31751
1358009087,5805,275.3900146484375000,18.6432991027832030,36.6008987426757800,225.1446990966797000,133.9907073974609400,18.6407508850097660,30.9354705810546880,52,103,96,80,66,12385,2146956187,2147509129,2147264219,2147452772,2147084489,2146961472,2147656466,2147127908,2279,-1,8,3776
1358009202,5805,264.1099853515625000,18.7164001464843750,36.5918998718261700,226.2677001953125000,131.6307067871093800,18.7121391296386720,30.8474502563476560,51,100,96,79,68,12385,2146957613,2147512402,2147267081,2147451218,2147082102,2146963245,2147658825,2147130331,1420,-1,9,29449
1358009317,5807,253.0000000000000000,18.8467006683349600,36.5801010131835940,228.2536010742187500,126.5058975219726600,18.8672103881835940,30.6801204681396500,51,98,97,81,66,12385,2146953462,2147512502,2147268653,2147450742,2147085970,2146963483,2147658093,2147128905,1796,-1,9,61043
1358009434,5805,242.3000030517578000,19.0342006683349600,36.5936012268066400,228.2196960449218800,121.1165008544921900,19.0303497314453120,30.6105194091796880,50,100,97,80,67,12382,2146956141,2147513097,2147265600,2147451684,2147083949,2146968466,2147663195,2147127725,1587,-2,9,31817
1358009561,5805,231.1699981689453000,19.1828994750976560,36.6016998291015600,229.9465026855468800,116.0525970458984400,19.1837100982666000,30.4585304260253900,51,100,95,79,67,12381,2146956480,2147514459,2147268141,2147451593,2147083968,2146968932,2147664365,2147131291,1010,-2,8,43381
1358009690,5805,220.0700073242187500,19.1669998168945300,36.5719985961914060,236.3616943359375000,116.6013031005859400,19.1670894622802730,30.1568107604980470,52,100,97,80,66,12381,2146956260,2147515355,2147264630,2147448612,2147087826,2146971593,2147672932,2147129398,234,-1,8,56428
1358009817,5806,209.3699951171875000,19.2992992401123050,36.5817985534668000,238.4669952392578000,112.6045989990234400,19.2881793975830080,30.0054607391357420,51,100,96,80,66,12379,2146955593,2147514358,2147265545,2147444900,2147086372,2146983478,2147689892,2147133056,2337,-1,9,60600
1358009944,5802,198.8200073242187500,19.3640995025634770,36.5699005126953100,241.7124023437500000,110.3018035888671900,19.3579692840576170,29.8247699737548830,50,102,96,81,66,12379,2146954258,2147513764,2147265344,2147443840,2147088009,2146986688,2147702784,2147132525,2085,-2,9,35103
1358010019,5805,192.9499969482422000,19.4461002349853500,36.5770988464355500,241.4501953125000000,107.5772018432617200,19.4405593872070300,29.8013706207275400,51,102,97,81,66,12377,2146955885,2147513261,2147267958,2147448566,2147087049,2146985938,2147714569,2147132288,1651,-2,9,46982
1358010074,5803,189.0299987792968800,19.5235996246337900,36.5830001831054700,240.5043029785156200,105.0101013183593800,19.5184001922607420,29.8115501403808600,52,103,96,81,66,12374,2146956196,2147514468,2147268196,2147451410,2147087478,2146991506,2147722249,2147135076,1150,-2,9,19901
1358010129,5808,185.1399993896484400,19.5792999267578120,36.5914001464843750,239.5097961425781200,102.6339035034179700,19.5904693603515620,29.8268699645996100,52,103,97,81,67,12373,2146955254,2147513718,2147264109,2147449673,2147088960,2147001398,2147729014,2147135305,928,-1,8,15333
1358010196,5805,180.5399932861328000,19.7851009368896500,36.6144981384277340,237.2256011962890600,96.2595367431640600,19.7838897705078120,29.8505897521972660,52,104,97,82,67,12372,2146954980,2147514368,2147267300,2147448667,2147090459,2147004544,2147743670,2147135094,1279,-2,9,353
1358010251,5806,176.8899993896484400,19.8199996948242200,36.6212997436523440,236.1694030761718800,95.3046875000000000,19.8128795623779300,29.8877906799316400,52,104,97,81,66,12369,2146957485,2147514697,2147267702,2147448182,2147088128,2147006162,2147755602,2147134939,1086,-2,9,4565
1358010329,5807,172.1300048828125000,19.8733005523681640,36.6235008239746100,235.8773956298828000,93.5269470214843800,19.8668498992919920,29.8785896301269530,53,105,97,82,67,12369,2146957174,2147520841,2147267017,2147450587,2147088530,2147017572,2147771108,2147137920,600,-2,8,8161
1358010396,5807,168.6799926757812500,19.8908996582031250,36.6255989074707000,235.8921051025390600,92.9133605957031200,19.8854808807373050,29.8699302673339840,53,104,98,81,67,12367,2146956763,2147513453,2147268946,2147446784,2147095286,2147026176,2147783442,2147138706,3438,-2,9,30590
1358010475,5805,164.7400054931640600,19.9867992401123050,36.6351013183593750,235.6239929199218800,89.7336883544921900,19.9820499420166000,29.8412609100341800,53,105,97,82,67,12365,2146956297,2147514843,2147267721,2147447972,2147094610,2147038281,2147800054,2147134198,3232,-2,8,42860
1358010566,5807,160.6600036621093800,20.1404991149902340,36.6492004394531250,234.9293975830078000,84.7545394897461000,20.1333408355712900,29.8095607757568360,54,105,98,83,67,12360,2146955748,2147518427,2147269321,2147444608,2147100809,2147044589,2147829732,2147137947,2199,-2,9,53242
1358010659,5804,156.8399963378906200,20.2756996154785160,36.6577987670898440,234.2785034179687500,80.5072021484375000,20.2624702453613280,29.7854900360107420,55,108,97,84,67,12364,2146957613,2147516553,2147268726,2147445952,2147098166,2147058532,2147847414,2147140160,2237,-2,9,8317
1358010762,5805,152.8200073242187500,20.3351001739501950,36.6622009277343750,235.4127044677734400,77.6584625244140600,20.3491191864013670,29.6948509216308600,56,111,99,85,67,12360,2146955254,2147517193,2147268370,2147446857,2147102400,2147075593,2147879076,2147145307,2411,-2,9,57632
1358010865,5806,148.9100036621093800,20.5330009460449220,36.6721000671386700,233.0303039550781200,72.0968017578125000,20.5183696746826170,29.7359504699707030,56,114,98,82,67,12352,2146959552,2147515702,2147273298,2147445147,2147107419,2147092580,2147908498,2147145133,3125,-2,9,53009
1358010965,5805,144.8600006103515600,20.7842006683349600,36.6875991821289060,233.3614959716797000,63.5987815856933600,20.7772102355957030,29.6106605529785160,56,115,98,85,67,12352,2146959899,2147517440,2147274523,2147443318,2147113691,2147120676,2147955593,2147149549,2530,-2,9,2853
1358011056,5804,140.8699951171875000,20.8819007873535160,36.6589012145996100,236.3311004638672000,60.3777008056640600,20.8754005432128900,29.4295692443847660,56,112,100,85,66,12342,2146959177,2147518317,2147272265,2147442889,2147118875,2147145371,2147998646,2147151524,2285,-2,9,30027
1358011159,5802,137.0000000000000000,21.1560993194580080,36.6310005187988300,237.9044952392578000,52.0454902648925800,21.1296005249023440,29.2501697540283200,56,114,100,84,65,12338,2146959734,2147518025,2147275264,2147440749,2147129234,2147177353,2148048987,2147155117,2269,-2,9,9868
1358011285,5802,132.8899993896484400,21.2714004516601560,36.6207008361816400,239.3079071044922000,47.6905517578125000,21.2625808715820300,29.1301803588867200,57,119,100,85,65,12327,2146959277,2147522578,2147280448,2147440091,2147140013,2147226386,2148132278,2147163830,1120,-2,9,29212
1358011388,5804,128.4799957275390600,21.3554992675781250,36.5880012512207000,240.9709930419922000,45.6569213867187500,21.3247108459472660,29.0284690856933600,57,122,99,85,65,12333,2146961554,2147527698,2147282450,2147438674,2147159853,2147281737,2148216210,2147167058,1470,-1,9,47636
1358011479,5802,125.0400009155273400,21.3831996917724600,36.5663986206054700,244.2991027832031200,44.0866012573242200,21.3726997375488280,28.8586807250976560,59,121,102,86,64,12320,2146961536,2147526180,2147288576,2147438893,2147178377,2147328667,2148294848,2147169508,2002,-2,9,46139
1358011594,5809,120.4499969482421900,21.3414001464843750,36.5047988891601560,250.4100952148437500,45.1991081237793000,21.3386993408203120,28.6037197113037100,62,129,105,87,62,12307,2146956361,2147527716,2147292388,2147435392,2147214875,2147420973,2148441938,2147183268,1888,-2,9,17448
1358011673,5806,116.5999984741211000,21.3535995483398440,36.5008010864257800,252.6002044677734400,44.8419113159179700,21.3496208190917970,28.5045795440673830,63,132,103,87,62,12299,2146964333,2147532214,2147301056,2147437540,2147244141,2147507867,2148578249,2147191286,2341,-2,9,28582
1358011752,5805,112.6500015258789000,21.3596000671386720,36.4996986389160160,253.4033966064453000,44.6581001281738300,21.3552303314209000,28.4678592681884770,63,130,102,88,63,12285,2146964278,2147532864,2147303506,2147437522,2147285293,2147609627,2148732169,2147200749,2821,-2,9,40189
1358011831,5805,108.5500030517578100,21.3621006011962900,36.5000991821289060,253.6504058837890600,44.5388984680175800,21.3588790893554700,28.4557590484619140,63,144,108,89,62,12295,2146964050,2147536091,2147312813,2147438592,2147338441,2147734592,2148920173,2147214125,2582,-2,9,51421
1358011912,5806,104.1800003051757800,21.3628997802734380,36.5005989074707000,253.6329040527343800,44.5096893310546900,21.3597698211669920,28.4561405181884770,62,128,104,87,62,12290,2146969947,2147541933,2147321846,2147441572,2147411840,2147891382,2149168064,2147231305,2367,-2,9,19824
1358011979,5802,100.3499984741211000,21.3666000366210940,36.4981002807617200,254.0034942626953000,44.4024009704589840,21.3630504608154300,28.4390697479248050,63,136,104,88,63,12298,2146972882,2147551259,2147331126,2147437494,2147492681,2148072658,2149439149,2147252205,2229,-2,9,13085
1358012034,5807,97.1600036621093800,21.3882007598876950,36.4944000244140600,254.0341949462890600,43.7116012573242200,21.3841590881347660,28.4291095733642580,65,132,106,89,62,12295,2146975341,2147558381,2147342573,2147440502,2147562651,2148227666,2149659821,2147271606,2291,-1,9,61433
1358012089,5805,94.0299987792968800,21.3960990905761720,36.4917984008789060,254.4228973388672000,43.4407501220703100,21.3924407958984380,28.4092903137207030,67,135,103,87,63,12284,2146977920,2147562889,2147352777,2147442112,2147654171,2148411428,2149935076,2147287616,2302,-2,9,41402
1358012144,5805,90.9800033569336000,21.3948993682861330,36.4900016784668000,254.9058074951172000,43.4647483825683600,21.3917007446289060,28.3889293670654300,68,140,105,88,63,12273,2146981787,2147569014,2147364772,2147439323,2147757568,2148625782,2150241792,2147316370,2157,-2,9,46462
1358012201,5803,87.8499984741211000,21.3943004608154300,36.4866981506347660,255.3724060058593800,43.5044784545898440,21.3904895782470700,28.3697109222412100,73,137,105,89,62,12268,2146984859,2147581805,2147384566,2147443364,2147885942,2148866176,2150608219,2147351533,1646,-2,9,27939
1358012256,5806,84.9199981689453100,21.3927993774414060,36.4858016967773440,255.8132934570312500,43.5209999084472660,21.3899898529052730,28.3512897491455080,78,146,106,91,64,12250,2146993746,2147590363,2147406756,2147444525,2148029284,2149120521,2150989211,2147389184,1214,-2,9,1035
1358012311,5806,82.0699996948242200,21.3943004608154300,36.4852981567382800,256.0100097656250000,43.4890403747558600,21.3909606933593750,28.3424396514892580,78,147,106,90,62,12243,2147001490,2147602002,2147431789,2147445430,2148188745,2149394294,2151382454,2147432164,908,-2,9,19630
1358012366,5806,79.2300033569336000,21.3971004486084000,36.4859008789062500,256.1426086425781000,43.3934516906738300,21.3938808441162100,28.3356609344482420,79,142,108,93,63,12255,2147007972,2147613110,2147457353,2147448923,2148385545,2149737828,2151863076,2147488310,712,-1,9,1538
1358012421,5807,76.4499969482421900,21.4004993438720700,36.4859008789062500,256.1127014160156000,43.2738609313964840,21.3975391387939450,28.3354396820068360,76,143,105,90,63,12226,2147018816,2147630381,2147482624,2147451062,2148604013,2150093037,2152364982,2147547145,756,-2,9,2384
1358012476,5805,73.7099990844726600,21.4076995849609380,36.4855995178222660,256.0042114257812500,43.0719490051269500,21.4037094116210940,28.3376407623291000,76,141,105,90,62,12248,2147030628,2147647414,2147508955,2147452571,2148868251,2150524333,2152963309,2147617609,855,-1,9,41419
1358012533,5807,70.8700027465820300,21.4095001220703120,36.4860000610351560,255.9378967285156200,42.9828491210937500,21.4064407348632800,28.3391895294189450,76,141,106,88,64,12255,2147042752,2147664420,2147543597,2147456969,2149179721,2151033728,2153658578,2147703762,1019,-1,9,27210
1358012588,5802,68.1600036621093800,21.4101009368896500,36.4861984252929700,255.8536071777343800,42.9313087463378900,21.4080104827880860,28.3422298431396500,76,137,107,90,62,12242,2147056877,2147688237,2147572068,2147460580,2149570761,2151638765,2154474294,2147806518,1148,-2,9,48662
1358012643,5805,65.4199981689453100,21.4155998229980470,36.4850997924804700,255.8108062744140600,42.7764091491699200,21.4127407073974600,28.3420295715332030,79,137,106,89,63,12242,2147074157,2147710336,2147607844,2147464356,2149970112,2152241270,2155265801,2147916544,1207,-1,9,36535
1358012698,5805,62.6800003051757800,21.4230995178222660,36.4852981567382800,255.8200988769531200,42.5186500549316400,21.4206295013427730,28.3385200500488280,79,137,106,89,60,12204,2147097846,2147739867,2147648192,2147466770,2150507666,2153045129,2156309083,2148069558,1340,-2,9,14190
1358012753,5803,59.9199981689453100,21.4269008636474600,36.4860992431640600,255.9980010986328000,42.3654212951660160,21.4253101348876950,28.3288993835449220,84,140,106,91,63,12233,2147119670,2147770340,2147682194,2147471424,2151085467,2153875776,2157377334,2148229394,1625,-1,9,63843
1358012808,5809,57.2500000000000000,21.4305000305175780,36.4852981567382800,256.3782043457031000,42.2425804138183600,21.4290599822998050,28.3113994598388670,88,143,107,91,63,12223,2147152987,2147804973,2147736576,2147477430,2151794614,2154861933,2158642779,2148455332,1804,-1,9,8377
1358012865,5804,54.4500007629394500,21.4552001953125000,36.4864997863769500,257.0191955566406000,41.4594383239746100,21.4530105590820300,28.2747707366943360,89,145,109,93,62,12209,2147189613,2147844434,2147792073,2147480146,2152666331,2156040676,2160110381,2148737124,2141,-2,9,24266
1358013006,5804,48.9799995422363300,21.4930000305175780,36.4850006103515600,258.2066955566406000,40.2457313537597660,21.4901199340820300,28.2096595764160160,86,153,110,92,62,12178,2147294034,2147967241,2147972379,2147510473,2155096960,2159180050,2164012708,2149553883,2145,-2,9,21146
1358013040,5804,47.5099983215332000,21.5002994537353500,36.4842987060546900,258.4168090820312500,40.0218887329101560,21.4969692230224600,28.1982307434082030,86,153,109,91,62,12181,2147329984,2148016978,2148040740,2147520704,2155910528,2160242194,2165342902,2149825984,2030,-2,9,56681
1358013085,5805,45.5000000000000000,21.5116996765136720,36.4822998046875000,258.8171997070312500,39.5474586486816400,21.5114707946777340,28.1756401062011720,84,150,110,91,62,12176,2147387209,2148083739,2148137709,2147535149,2157244068,2161941028,2167337782,2150278473,1959,-2,9,39726
1358013130,5805,43.5499992370605500,21.5198993682861330,36.4810981750488300,259.1480102539062500,39.3620796203613300,21.5171508789062500,28.1594905853271500,78,148,112,92,64,12178,2147456704,2148170331,2148266221,2147557869,2158693357,2163776356,2169495460,2150740562,1791,-1,9,49769
1358013177,5803,41.5400009155273440,21.5195007324218750,36.4814987182617200,259.4382019042969000,39.3084793090820300,21.5187797546386720,28.1468696594238280,76,148,108,92,60,12173,2147543369,2148277970,2148415890,2147584585,2160544512,2166145600,2172320621,2151368045,1633,-2,9,20612
1358013222,5802,39.6100006103515600,21.5188999176025400,36.4818000793457000,259.8327026367187500,39.2925491333007800,21.5192699432373050,28.1301994323730470,76,148,107,91,60,12167,2147631122,2148380260,2148571017,2147614473,2162436434,2168550683,2175027117,2151983588,1546,-1,9,35270
1358013267,5803,37.7000007629394500,21.5198993682861330,36.4804992675781250,259.9733886718750000,39.2648086547851560,21.5201206207275400,28.1241207122802730,75,147,109,91,61,12162,2147734006,2148503488,2148755830,2147661659,2164583460,2171175652,2177987986,2152724763,1402,-1,9,58836
1358013312,5806,35.7400016784668000,21.5189990997314450,36.4813003540039060,260.0134887695312500,39.2432708740234400,21.5207805633544920,28.1220302581787100,74,149,111,92,60,12175,2147855085,2148642697,2148975798,2147727597,2166998381,2174138788,2181209938,2153555739,1283,-1,9,727
1358013357,5805,33.8300018310546900,21.5195007324218750,36.4808998107910160,260.1488037109375000,39.1914405822753900,21.5223598480224600,28.1159496307373050,74,161,109,93,61,12158,2147997897,2148814802,2149246034,2147840329,2169986203,2177793115,2185167853,2154651273,1171,-1,9,47949
1358013414,5802,31.3999996185302730,21.5210990905761720,36.4807014465332000,260.2253112792969000,39.1117782592773440,21.5247993469238280,28.1116008758544920,72,148,107,92,62,12154,2148193993,2149041974,2149592384,2147998601,2174134354,2182868937,2190660717,2156212288,1081,-2,9,28079
1358013459,5808,29.5000000000000000,21.5221004486084000,36.4804992675781250,260.4431152343750000,39.0501213073730500,21.5266895294189450,28.1018295288085940,71,150,108,94,60,12159,2148374555,2149255012,2149943542,2148241243,2177720091,2187068827,2194935872,2157562532,950,-2,9,47315
1358013506,5808,27.4899997711181640,21.5219993591308600,36.4809989929199200,260.5813903808594000,38.9970092773437500,21.5283107757568360,28.0957298278808600,70,152,110,91,62,12153,2148592475,2149493668,2150313837,2148533568,2182180050,2192304237,2200235702,2159404918,810,-2,9,63620
1358013551,5803,25.5200004577636720,21.5230998992919920,36.4810981750488300,260.8255920410156000,38.9170494079589840,21.5307598114013670,28.0843696594238280,70,145,110,93,61,12162,2148819666,2149742116,2150674221,2148849024,2187026715,2198014061,2206005357,2161343122,687,-2,9,64119
